TimeAEST,TemperatureF,Dew PointF,Humidity,Sea Level PressureIn,VisibilityMPH,Wind Direction,Wind SpeedMPH,Gust SpeedMPH,PrecipitationIn,Events,Conditions,WindDirDegrees,DateUTC
12:00 AM,64,54,63,30.06,,SE,10.4,,,,Overcast,140,2013-08-10 14:00:00
12:00 AM,64.4,55.4,73,30.04,6.2,SE,10.4,-,N/A,,Scattered Clouds,140,2013-08-10 14:00:00
12:30 AM,64.4,53.6,68,30.04,6.2,SSE,9.2,-,N/A,,Scattered Clouds,160,2013-08-10 14:30:00
1:00 AM,64,54,63,30.05,,SE,11.5,,,,,140,2013-08-10 15:00:00
1:00 AM,64.4,53.6,68,30.04,6.2,SE,11.5,-,N/A,,Mostly Cloudy,140,2013-08-10 15:00:00
1:30 AM,66.2,53.6,64,30.04,6.2,SSE,10.4,-,N/A,,Mostly Cloudy,160,2013-08-10 15:30:00
2:00 AM,69.8,51.8,53,30.01,6.2,SSW,9.2,-,N/A,,Mostly Cloudy,200,2013-08-10 16:00:00
2:30 AM,66.2,53.6,64,30.01,6.2,SSE,12.7,-,N/A,,Mostly Cloudy,150,2013-08-10 16:30:00
3:00 AM,68.0,53.6,60,30.01,6.2,SSE,11.5,-,N/A,,Mostly Cloudy,150,2013-08-10 17:00:00
3:30 AM,64.4,53.6,68,30.01,6.2,SE,15.0,-,N/A,,Mostly Cloudy,140,2013-08-10 17:30:00
4:00 AM,66,54,55,30.01,,SE,11.5,,,,,130,2013-08-10 18:00:00
4:00 AM,66.2,53.6,64,30.01,6.2,SE,11.5,-,N/A,,Mostly Cloudy,130,2013-08-10 18:00:00
4:30 AM,69.8,53.6,56,29.98,6.2,South,5.8,-,N/A,,Mostly Cloudy,190,2013-08-10 18:30:00
5:00 AM,66.2,53.6,64,29.98,6.2,ESE,11.5,-,N/A,,Mostly Cloudy,120,2013-08-10 19:00:00
5:30 AM,66.2,53.6,64,30.01,6.2,SE,12.7,-,N/A,,Mostly Cloudy,140,2013-08-10 19:30:00
6:00 AM,66.2,53.6,64,30.01,6.2,SSE,5.8,-,N/A,,Mostly Cloudy,160,2013-08-10 20:00:00
6:30 AM,68.0,53.6,60,30.01,6.2,South,6.9,-,N/A,,Mostly Cloudy,170,2013-08-10 20:30:00
7:00 AM,67,54,54,30.03,,SE,10.4,,,,,140,2013-08-10 21:00:00
7:00 AM,68.0,53.6,60,30.01,6.2,SE,10.4,-,N/A,,Mostly Cloudy,140,2013-08-10 21:00:00
7:30 AM,66.2,53.6,64,30.04,6.2,SSE,10.4,-,N/A,,Mostly Cloudy,150,2013-08-10 21:30:00
8:00 AM,68.0,55.4,64,30.04,6.2,SSE,5.8,-,N/A,,Mostly Cloudy,150,2013-08-10 22:00:00
8:30 AM,69.8,57.2,64,30.04,6.2,SSE,3.5,-,N/A,,Mostly Cloudy,150,2013-08-10 22:30:00
9:00 AM,73,57,46,30.06,19,South,6.9,,,,Partly Cloudy,170,2013-08-10 23:00:00
9:00 AM,73.4,57.2,57,30.04,6.2,South,6.9,-,N/A,,Mostly Cloudy,170,2013-08-10 23:00:00
9:30 AM,75.2,55.4,50,30.04,6.2,SSE,6.9,-,N/A,,Mostly Cloudy,150,2013-08-10 23:30:00
10:00 AM,76,58,43,30.07,,SSE,8.1,,,,,160,2013-08-11 00:00:00
10:00 AM,75.2,57.2,53,30.06,6.2,SSE,8.1,-,N/A,,Mostly Cloudy,160,2013-08-11 00:00:00
10:30 AM,75.2,57.2,53,30.06,6.2,South,8.1,-,N/A,,Mostly Cloudy,180,2013-08-11 00:30:00
11:00 AM,77.0,59.0,54,30.04,6.2,South,10.4,-,N/A,,Mostly Cloudy,170,2013-08-11 01:00:00
11:30 AM,78.8,60.8,54,30.04,6.2,South,10.4,-,N/A,,Mostly Cloudy,170,2013-08-11 01:30:00
12:00 PM,78,59,43,30.03,19,South,8.1,,,,Partly Cloudy,170,2013-08-11 02:00:00
12:00 PM,77.0,59.0,54,30.01,6.2,South,8.1,-,N/A,,Scattered Clouds,170,2013-08-11 02:00:00
12:30 PM,78.8,55.4,44,30.01,6.2,SE,10.4,-,N/A,,Scattered Clouds,130,2013-08-11 02:30:00
1:00 PM,80,58,37,30.01,,NE,10.4,,,,,40,2013-08-11 03:00:00
1:00 PM,80.6,59.0,48,29.98,6.2,NE,10.4,-,N/A,,Scattered Clouds,40,2013-08-11 03:00:00
1:30 PM,82.4,53.6,37,29.98,6.2,East,16.1,-,N/A,,Scattered Clouds,80,2013-08-11 03:30:00
2:00 PM,80.6,55.4,42,29.98,6.2,East,15.0,-,N/A,,Partly Cloudy,90,2013-08-11 04:00:00
2:30 PM,80.6,55.4,42,29.95,6.2,East,11.5,-,N/A,,Partly Cloudy,90,2013-08-11 04:30:00
3:00 PM,81,55,31,29.96,19,East,12.7,,,,Partly Cloudy,90,2013-08-11 05:00:00
3:00 PM,80.6,55.4,42,29.95,6.2,East,12.7,-,N/A,,Partly Cloudy,90,2013-08-11 05:00:00
3:30 PM,80.6,55.4,42,29.95,6.2,East,12.7,-,N/A,,Partly Cloudy,90,2013-08-11 05:30:00
4:00 PM,79,55,33,29.96,,East,12.7,,,,,90,2013-08-11 06:00:00
4:00 PM,78.8,55.4,44,29.95,6.2,East,12.7,-,N/A,,Partly Cloudy,90,2013-08-11 06:00:00
4:30 PM,77.0,57.2,50,29.95,6.2,East,12.7,-,N/A,,Partly Cloudy,90,2013-08-11 06:30:00
5:00 PM,77.0,57.2,50,29.95,6.2,East,10.4,-,N/A,,Partly Cloudy,100,2013-08-11 07:00:00
5:30 PM,75.2,59.0,57,29.95,6.2,SE,9.2,-,N/A,,Partly Cloudy,140,2013-08-11 07:30:00
6:00 PM,72,59,55,29.98,,South,6.9,,,,,170,2013-08-11 08:00:00
6:00 PM,71.6,59.0,64,29.98,6.2,South,6.9,-,N/A,,Partly Cloudy,170,2013-08-11 08:00:00
6:30 PM,71.6,59.0,64,29.98,6.2,South,6.9,-,N/A,,Partly Cloudy,170,2013-08-11 08:30:00
7:00 PM,71,62,64,30.00,,South,9.2,,,,,170,2013-08-11 09:00:00
7:00 PM,71.6,60.8,69,29.98,6.2,South,9.2,-,N/A,,Partly Cloudy,170,2013-08-11 09:00:00
7:30 PM,69.8,60.8,73,29.98,6.2,South,6.9,-,N/A,,Partly Cloudy,170,2013-08-11 09:30:00
8:00 PM,69.8,60.8,73,30.01,6.2,SSE,5.8,-,N/A,,Partly Cloudy,160,2013-08-11 10:00:00
8:30 PM,68.0,59.0,73,30.01,6.2,SSE,6.9,-,N/A,,Partly Cloudy,150,2013-08-11 10:30:00
9:00 PM,69,60,67,30.02,,SSE,8.1,,,,Overcast,160,2013-08-11 11:00:00
9:00 PM,69.8,60.8,73,30.01,6.2,SSE,8.1,-,N/A,,Partly Cloudy,160,2013-08-11 11:00:00
9:30 PM,69.8,60.8,73,30.01,6.2,South,9.2,-,N/A,,Partly Cloudy,170,2013-08-11 11:30:00
10:00 PM,69,62,71,30.04,,South,10.4,,,,,170,2013-08-11 12:00:00
10:00 PM,69.8,60.8,73,30.04,6.2,South,10.4,-,N/A,,Partly Cloudy,170,2013-08-11 12:00:00
10:30 PM,69.8,62.6,78,30.04,6.2,South,11.5,-,N/A,,Partly Cloudy,170,2013-08-11 12:30:00
11:00 PM,69.8,60.8,73,30.01,6.2,SSE,10.4,-,N/A,,Partly Cloudy,160,2013-08-11 13:00:00
11:30 PM,68.0,60.8,78,30.01,6.2,SE,11.5,-,N/A,,Partly Cloudy,140,2013-08-11 13:30:00